Weather History for Chipley, FL

Change the Weather History Date:

Monday, January 14, 2013

  Actual Average (KMAI) Record (KMAI)
Temperature  
Mean Temperature 48 °F 50 °F  
Max Temperature 55 °F 61 °F 81 °F (2013)
Min Temperature 42 °F 39 °F 21 °F (2011)
Degree Days  
Heating Degree Days 16    
Month to date heating degree days  
Since 1 July heating degree days  
Cooling Degree Days 0    
Month to date cooling degree days  
Year to date cooling degree days  
Moisture  
Dew Point 48 °F    
Average Humidity 91    
Maximum Humidity 94    
Minimum Humidity 87    
Precipitation  
Precipitation 0.00 in 0.14 in 0.40 in (1999)
Month to date precipitation 2.16  
Year to date precipitation 2.16  
Sea Level Pressure  
Sea Level Pressure 30.08 in    
Wind  
Wind Speed 8 mph (NNE)    
Max Wind Speed 14 mph    
Max Gust Speed 20 mph    
Visibility 6 miles    
Events      
T = Trace of Precipitation, MM = Missing Value Source: NWS Daily Summary

Daily Weather History Graph

Daily Weather History Graph

Search for Another Location

Airport:

Trip Planner

Search our weather history database for the weather conditions in past years. The results will help you decide how hot, cold, wet, or windy it might be!

Date:

Astronomy

Jan. 14, 2013 Rise Set
Actual Time 6:40 AM CST 5:02 PM CST
Civil Twilight 6:14 AM CST 5:28 PM CST
Nautical Twilight 5:45 AM CST 5:58 PM CST
Astronomical Twilight 5:15 AM CST 6:27 PM CST
Moon 8:29 AM CST (1/14) 8:29 PM CST (1/14)
Length of Visible Light 11h 14m
Length of Day
10h 21m
Waxing Crescent, 11% of the Moon is Illuminated
Jan 14
Waxing Crescent
Jan 18
First Quarter
Jan 26
Full
Feb 3
Last Quarter
Feb 10
New

Hourly Weather History & Observations

Time (CST) Temp. Windchill Dew Point Humidity Pressure Visibility Wind Dir Wind Speed Gust Speed Precip Events Conditions
12:15 AM 53.6 °F - 50.0 °F 88% 30.06 in 3.0 mi North 9.2 mph 16.1 mph N/A   Overcast
12:35 AM 51.8 °F - 50.0 °F 94% 30.05 in 5.0 mi NNE 9.2 mph - N/A   Overcast
12:55 AM 51.8 °F - 48.2 °F 88% 30.06 in 9.0 mi North 10.4 mph - N/A   Overcast
1:15 AM 51.8 °F - 50.0 °F 94% 30.07 in 3.0 mi North 5.8 mph - N/A   Overcast
1:35 AM 51.8 °F - 48.2 °F 88% 30.07 in 4.0 mi NNE 9.2 mph 17.3 mph N/A   Overcast
1:55 AM 51.8 °F - 48.2 °F 88% 30.07 in 4.0 mi NNE 6.9 mph 17.3 mph N/A   Overcast
2:15 AM 51.8 °F - 48.2 °F 88% 30.07 in 4.0 mi NNE 10.4 mph - N/A   Overcast
2:55 AM 51.8 °F - 48.2 °F 88% 30.06 in 5.0 mi NNE 9.2 mph - N/A   Overcast
3:15 AM 51.8 °F - 48.2 °F 88% 30.06 in 10.0 mi NNE 11.5 mph 17.3 mph N/A   Overcast
3:35 AM 51.8 °F - 48.2 °F 88% 30.05 in 9.0 mi NNE 11.5 mph 17.3 mph N/A   Overcast
3:55 AM 51.8 °F - 48.2 °F 88% 30.04 in 10.0 mi NNE 9.2 mph - N/A   Overcast
4:15 AM 51.8 °F - 48.2 °F 88% 30.04 in 10.0 mi NNE 11.5 mph 16.1 mph N/A   Overcast
4:35 AM 51.8 °F - 48.2 °F 88% 30.05 in 10.0 mi NNE 8.1 mph - N/A   Overcast
4:55 AM 51.8 °F - 48.2 °F 88% 30.05 in 10.0 mi NNE 6.9 mph - N/A   Overcast
5:15 AM 51.8 °F - 48.2 °F 88% 30.05 in 9.0 mi NNE 8.1 mph - N/A   Overcast
5:35 AM 51.8 °F - 48.2 °F 88% 30.05 in 10.0 mi NNE 5.8 mph - N/A   Overcast
5:55 AM 51.8 °F - 48.2 °F 88% 30.06 in 10.0 mi North 5.8 mph - N/A   Overcast
6:15 AM 51.8 °F - 48.2 °F 88% 30.07 in 8.0 mi North 9.2 mph - N/A   Overcast
6:35 AM 51.8 °F - 48.2 °F 88% 30.07 in 5.0 mi NNE 6.9 mph - N/A   Overcast
6:55 AM 51.8 °F - 48.2 °F 88% 30.08 in 5.0 mi North 5.8 mph - N/A   Overcast
7:15 AM 51.8 °F - 48.2 °F 88% 30.09 in 7.0 mi North 6.9 mph - N/A   Overcast
7:35 AM 51.8 °F - 48.2 °F 88% 30.09 in 3.0 mi NNE 4.6 mph - N/A   Overcast
7:55 AM 51.8 °F - 48.2 °F 88% 30.09 in 2.5 mi NNE 5.8 mph - N/A   Overcast
8:15 AM 51.8 °F - 48.2 °F 88% 30.10 in 3.0 mi NNE 6.9 mph - N/A   Overcast
8:35 AM 51.8 °F - 48.2 °F 88% 30.11 in 2.0 mi NE 8.1 mph - N/A   Overcast
8:55 AM 51.8 °F - 50.0 °F 94% 30.11 in 3.0 mi NNE 3.5 mph - N/A   Overcast
9:15 AM 51.8 °F - 50.0 °F 94% 30.11 in 3.0 mi NNE 6.9 mph - N/A   Overcast
9:35 AM 51.8 °F - 50.0 °F 94% 30.11 in 2.0 mi ENE 5.8 mph - N/A   Overcast
9:55 AM 53.6 °F - 51.8 °F 94% 30.10 in 2.0 mi Calm Calm - N/A   Overcast
10:15 AM 53.6 °F - 51.8 °F 94% 30.10 in 2.5 mi East 4.6 mph - N/A   Overcast
10:35 AM 53.6 °F - 51.8 °F 94% 30.09 in 2.5 mi NNE 3.5 mph - N/A   Overcast
10:55 AM 53.6 °F - 51.8 °F 94% 30.09 in 1.8 mi ENE 3.5 mph - N/A   Overcast
11:15 AM 53.6 °F - 51.8 °F 94% 30.08 in 2.0 mi NNE 4.6 mph - N/A   Overcast
11:35 AM 53.6 °F - 51.8 °F 94% 30.07 in 1.5 mi Calm Calm - N/A   Overcast
11:55 AM 55.4 °F - 53.6 °F 94% 30.06 in 2.0 mi NE 3.5 mph - N/A   Overcast
12:15 PM 55.4 °F - 53.6 °F 94% 30.06 in 1.5 mi NNE 3.5 mph - N/A   Overcast
12:35 PM 55.4 °F - 53.6 °F 94% 30.05 in 2.0 mi North 4.6 mph - N/A   Overcast
12:55 PM 55.4 °F - 53.6 °F 94% 30.06 in 2.0 mi North 4.6 mph - N/A   Overcast
1:15 PM 53.6 °F - 51.8 °F 94% 30.06 in 2.0 mi North 5.8 mph - N/A   Overcast
1:35 PM 53.6 °F - 51.8 °F 94% 30.05 in 1.5 mi North 6.9 mph - N/A   Overcast
1:55 PM 53.6 °F - 50.0 °F 88% 30.05 in 2.5 mi North 8.1 mph - N/A   Overcast
2:15 PM 53.6 °F - 50.0 °F 88% 30.06 in 3.0 mi North 5.8 mph - N/A   Overcast
2:35 PM 51.8 °F - 50.0 °F 94% 30.06 in 2.5 mi North 8.1 mph - N/A   Overcast
2:55 PM 51.8 °F - 50.0 °F 94% 30.07 in 1.8 mi North 8.1 mph - N/A   Overcast
3:15 PM 51.8 °F - 48.2 °F 88% 30.08 in 1.8 mi North 8.1 mph 16.1 mph N/A   Overcast
3:35 PM 51.8 °F - 48.2 °F 88% 30.09 in 1.8 mi North 8.1 mph 17.3 mph N/A   Overcast
3:55 PM 51.8 °F - 48.2 °F 88% 30.10 in 3.0 mi North 8.1 mph 17.3 mph N/A   Overcast
4:15 PM 50.0 °F - 48.2 °F 94% 30.10 in 3.0 mi North 10.4 mph 17.3 mph N/A   Overcast
4:35 PM 50.0 °F - 46.4 °F 87% 30.10 in 3.0 mi North 8.1 mph - N/A   Overcast
4:55 PM 48.2 °F - 46.4 °F 93% 30.12 in 3.0 mi North 10.4 mph 18.4 mph N/A   Overcast
5:15 PM 48.2 °F - 46.4 °F 93% 30.12 in 3.0 mi North 11.5 mph 17.3 mph N/A   Overcast
5:35 PM 48.2 °F - 44.6 °F 87% 30.12 in 8.0 mi North 11.5 mph 18.4 mph N/A   Overcast
5:55 PM 48.2 °F - 44.6 °F 87% 30.12 in 5.0 mi North 9.2 mph 17.3 mph N/A   Overcast
6:15 PM 46.4 °F 41.9 °F 42.8 °F 87% 30.12 in 5.0 mi NNE 9.2 mph 18.4 mph N/A   Overcast
6:35 PM 46.4 °F 43.5 °F 44.6 °F 93% 30.13 in 7.0 mi North 5.8 mph - N/A   Overcast
6:55 PM 44.6 °F 39.2 °F 42.8 °F 93% 30.13 in 9.0 mi North 10.4 mph 19.6 mph N/A   Overcast
7:15 PM 44.6 °F 41.4 °F 42.8 °F 93% 30.13 in 9.0 mi North 5.8 mph - N/A   Overcast
7:35 PM 44.6 °F 38.1 °F 41.0 °F 87% 30.13 in 10.0 mi North 13.8 mph 19.6 mph N/A   Overcast
7:55 PM 42.8 °F 36.6 °F 41.0 °F 93% 30.13 in 10.0 mi NNE 11.5 mph 19.6 mph N/A   Overcast
8:15 PM 42.8 °F 37.0 °F 41.0 °F 93% 30.11 in 10.0 mi NNE 10.4 mph 18.4 mph N/A   Overcast
8:35 PM 44.6 °F 39.2 °F 41.0 °F 87% 30.11 in 10.0 mi NNE 10.4 mph - N/A   Overcast
8:55 PM 44.6 °F 40.7 °F 42.8 °F 93% 30.11 in 10.0 mi NNE 6.9 mph - N/A   Overcast
9:15 PM 46.4 °F 42.9 °F 44.6 °F 93% 30.09 in 9.0 mi NNE 6.9 mph - N/A   Overcast
9:35 PM 46.4 °F 42.4 °F 44.6 °F 93% 30.09 in 10.0 mi NNE 8.1 mph - N/A   Overcast
9:55 PM 46.4 °F 43.5 °F 44.6 °F 93% 30.09 in 9.0 mi NNE 5.8 mph - N/A   Overcast
10:15 PM 46.4 °F 43.5 °F 44.6 °F 93% 30.09 in 10.0 mi NNE 5.8 mph - N/A   Overcast
10:35 PM 46.4 °F 42.9 °F 44.6 °F 93% 30.09 in 10.0 mi North 6.9 mph - N/A   Overcast
10:55 PM 46.4 °F 42.9 °F 44.6 °F 93% 30.09 in 10.0 mi North 6.9 mph - N/A   Overcast
11:15 PM 46.4 °F 42.4 °F 44.6 °F 93% 30.09 in 10.0 mi NNE 8.1 mph - N/A   Overcast
11:35 PM 46.4 °F 43.5 °F 44.6 °F 93% 30.08 in 7.0 mi North 5.8 mph - N/A   Overcast
11:55 PM 46.4 °F 42.4 °F 44.6 °F 93% 30.07 in 5.0 mi NNE 8.1 mph - N/A   Overcast